map of KIGX home
Great Circle Mapper logo
KIGX - Airport
Location
City:  Chapel Hill, North Carolina, United States
Name:Horace Williams Airport
ICAO:KIGX
FAA:IGX

Details
Type:Airport (Airfield)
Use:Public/Civil
Latitude:3556'06"N (35.935000)
Longitude:7903'57"W (-79.065916)
Datum:WGS 1984
Elevation:511 ft (156 m)
Runways:1
Longest:4005 × 75 ft (1221 × 23 m), paved

Time
Time Zone:UTC-5 (DST-4)
Local Time:

Weather
METAR:KIGX 011341Z AUTO 00000KT 1SM BR VV002 17/17 A3003 RMK AO2 T01720167 TSNO

Related Locations
Nearby:
Farthest:MGV: 11628 mi / 18714 km
Margaret River, WA, AU

Find:

   beyond  
but within

Other Information
Maps:
NOTAMs:
Links:
Sources:

  
flag of United States
flag of North Carolina
  

Sectional Chart

Flight Planning
at skyvector.com

Satellite Image

Google Maps Satellite View

 

Copyright © 2004-2014 Karl L. Swartz. All rights reserved.
The Great Circle Mapper name and logo are trademarks of the Great Circle Mapper.
All other trademarks mentioned herein belong to their respective owners.
Please see credits for attibutions and further copyright information.

  Follow gcmap on Facebook Follow gcmap on Twitter

hCard Microformat

Geo Microformat